Regional Weather Roundup
Issued by NWS

Current Version | Previous Version | Text Only | Print | Product List | Glossary On
Versions: 1 2 3 4 5 6 7 8 9 10 11 12 13 14 15 16 17 18 19 20 21 22 23 24 25 26 27 28 29 30 31 32 33 34 35 36 37 38 39 40 41 42 43 44 45 46 47 48 49 50
000
ASUS45 KABQ 260410
RWRNM
NEW MEXICO REGIONAL WEATHER ROUNDUP
NATIONAL WEATHER SERVICE ALBUQUERQUE NM
1000 PM MDT WED MAY 25 2016

NOTE: "FAIR" MEANS FEW OR NO CLOUDS BELOW 12,000 FEET AGL WITH NO
       SIGNIFICANT WEATHER OR OBSTRUCTIONS TO VISION.

      THIS PRODUCT IS RELEASED AS TWO VERSIONS.  ONE VERSION NEAR
      THE TOP OF THE HOUR CONTAINING PRELIMINARY DATA FROM ALBUQUERQUE
      AND OTHER STATIONS.  A FINAL VERSION WITH ADDITIONAL DATA IS
      ISSUED ABOUT 10 MINUTES AFTER THE HOUR.

NMZ501-503-504-510>518-260500-
NORTHWEST PLATEAU/NORTHCENTRAL MOUNTAINS

CITY           SKY/WX    TMP DP  RH WIND       PRES   REMARKS
FARMINGTON     FAIR      60  11  14 W9        29.97R
LOS ALAMOS     FAIR      61  21  21 W7        30.09R
SANTA FE       FAIR      57  19  22 N9        30.02R
TAOS           FAIR      57  19  23 SW5       30.10R
ANGEL FIRE     FAIR      40  25  54 CALM      30.18S

$$
NMZ402-403-502-505>509-260500-
WESTCENTRAL MOUNTAINS/SOUTHWEST MOUNTAINS

CITY           SKY/WX    TMP DP  RH WIND       PRES   REMARKS
GALLUP         FAIR      55  15  20 SW7       30.06R
GRANTS         FAIR      57  15  19 W7        30.08R
SILVER CITY      N/A     64  14  14 W8        30.07R

$$
NMZ407-409-411-412-260500-
SOUTHERN DESERTS

CITY           SKY/WX    TMP DP  RH WIND       PRES   REMARKS
LORDSBURG      FAIR      72  19  14 SW13G20   29.99R
DEMING         FAIR      73  13  10 W12       29.99R
LAS CRUCES     FAIR      73   8   8 SW13      30.00R
HOLLOMAN AFB   FAIR      73  11   9 SW7       29.94R
ALAMOGORDO     FAIR      73  14  10 SW7       29.97R
T OR C         FAIR      76  14   9 SW17G24   29.97R

$$
NMZ519>523-260500-
CENTRAL VALLEYS/CENTRAL HIGHLANDS

CITY           SKY/WX    TMP DP  RH WIND       PRES   REMARKS
ALBUQUERQUE    FAIR      71  13  10 SW7       29.98R
DOUBLE EAGLE   PTCLDY    61  16  17 SW10      30.01R
MORIARTY ARPT  FAIR      51  19  27 S7        30.05R
CLINES CORNERS FAIR      58  13  17 SW15      30.08R
BELEN          FAIR      64  13  13 SW7       29.97S
SOCORRO        FAIR      64  18  17 W3        29.96R

$$
NMZ524>526-539-540-260500-
SOUTHCENTRAL MOUNTAINS

CITY           SKY/WX    TMP DP  RH WIND       PRES   REMARKS
RUIDOSO          N/A     59  18  20 S6        30.15R

$$
NMZ527>531-260500-
NORTHEAST HIGHLANDS/NORTHEAST PLAINS

CITY           SKY/WX    TMP DP  RH WIND       PRES   REMARKS
LAS VEGAS      FAIR      58  17  20 S12       30.07S
RATON          FAIR      53  18  25 W6        30.02R
CLAYTON        FAIR      65  21  18 W10       29.95R

$$
NMZ532>537-260500-
EASTCENTRAL PLAINS

CITY           SKY/WX    TMP DP  RH WIND       PRES   REMARKS
TUCUMCARI      FAIR      66  21  18 SW12      29.92R
CANNON AFB     FAIR      69  23  18 W6        29.97R
CLOVIS AIRPORT FAIR      64  28  25 W8        29.96F

$$
NMZ028-029-538-260500-
SOUTHEAST PLAINS

CITY           SKY/WX    TMP DP  RH WIND       PRES   REMARKS
ROSWELL        FAIR      70  25  18 S6        29.91S
ARTESIA        FAIR      73  28  19 W10       29.91R
CARLSBAD       FAIR      80  26  13 CALM      29.89R
HOBBS          FAIR      77  45  31 SE8       29.95F


$$




USA.gov is the U.S. government's official web portal to all federal, state and local government web resources and services.